Home > Weather > Lierbyen > Past weeks

Flag for Norway Past Weather in Lierbyen, Norway — Yesterday and Last 2 Weeks

Now
45 °F

Overcast.


Feels Like: 35 °F
Forecast: 45 / 64 °F
Wind: 26 mph from North

Location: Statfjord B

Current Time: May 24, 2016 at 12:05:16 PM

Latest Report: May 24, 2016 at 11:20 AM


Visibility: N/A

Pressure: 30.27 "Hg

Humidity: 87%

Dew Point: 41 °F

Location of LierbyenLocation

Past Weather in Lierbyen — Graph

°F

Lierbyen Temperature Yesterday

Maximum temperature yesterday: 54 °F (at 2:50 PM)
Minimum temperature yesterday: 45 °F (at 1:50 AM)
Average temperature yesterday: 47 °F

High & Low Weather Summary for the Past Weeks

 TemperatureHumidityPressure
High55 °F (May 9, 4:20 PM)100% (May 10, 8:20 AM)30.27 "Hg (May 10, 8:20 AM)
Low37 °F (May 14, 12:50 AM)49% (May 19, 4:20 AM)29.47 "Hg (May 21, 9:50 PM)
Average45 °F78%29.93 "Hg
* Reported May 9 10:20 AM — May 24 10:20 AM, Lierbyen, Weather by CustomWeather, © 2016

Note: Actual official high and low records may vary slightly from our data, if they occured in-between our weather recording intervals... More about our weather records

Advertising

Lierbyen Weather History for the Previous 24 Hours

Scroll right to see more
 ConditionsComfort  
Time TempWeatherWind HumidityBarometerVisibility
10:20 AM
Tue, May 24
45 °FOvercast.22 mph87%30.27 "HgN/A
9:50 AM45 °FPartly sunny.15 mph81%30.27 "HgN/A
9:20 AM45 °FOvercast.18 mph76%30.27 "HgN/A
8:50 AM45 °FOvercast.18 mph76%30.27 "HgN/A
8:20 AM45 °FOvercast.20 mph71%30.27 "HgN/A
7:50 AM45 °FOvercast.17 mph66%30.27 "HgN/A
7:20 AM45 °FOvercast.22 mph66%30.27 "HgN/A
6:50 AM45 °FPartly sunny.23 mph71%30.24 "HgN/A
6:20 AM45 °FOvercast.22 mph71%30.24 "HgN/A
5:50 AM45 °FOvercast.22 mph71%30.24 "HgN/A
5:20 AM45 °FOvercast.22 mph71%30.24 "HgN/A
4:50 AM45 °FOvercast.21 mph71%30.24 "HgN/A
4:20 AM45 °FOvercast.18 mph71%30.24 "HgN/A
3:50 AM45 °FPassing clouds.22 mph76%30.24 "HgN/A
3:20 AM45 °FPassing clouds.22 mph76%30.24 "HgN/A
2:50 AM45 °FPassing clouds.22 mph71%30.24 "HgN/A
2:20 AM45 °FPassing clouds.25 mph76%30.24 "HgN/A
1:50 AM45 °FPassing clouds.20 mph76%30.21 "HgN/A
1:20 AM45 °FPassing clouds.22 mph76%30.21 "HgN/A
12:50 AM45 °FPassing clouds.22 mph76%30.24 "HgN/A
12:20 AM45 °FOvercast.21 mph76%30.21 "HgN/A
11:50 PM
Mon, May 23
45 °FOvercast.23 mph76%30.21 "HgN/A
11:20 PM45 °FOvercast.21 mph76%30.21 "HgN/A
10:50 PM45 °FPartly sunny.22 mph76%30.21 "HgN/A
10:20 PM45 °FPartly sunny.22 mph76%30.21 "HgN/A
9:50 PM45 °FPartly sunny.22 mph76%30.18 "HgN/A
9:20 PM45 °FOvercast.22 mph76%30.18 "HgN/A
8:50 PM46 °FPartly sunny.18 mph76%30.18 "HgN/A
8:20 PM46 °FPartly sunny.22 mph71%30.18 "HgN/A
7:50 PM46 °FPartly sunny.23 mph71%30.15 "HgN/A
7:20 PM46 °FPartly sunny.22 mph71%30.15 "HgN/A
6:50 PM48 °FPartly sunny.23 mph66%30.15 "HgN/A
6:20 PM48 °FScattered clouds.23 mph66%30.12 "HgN/A
5:50 PM50 °FPartly sunny.21 mph71%30.12 "HgN/A
5:20 PM50 °FPassing clouds.20 mph71%30.12 "HgN/A
4:50 PM50 °FPartly sunny.16 mph76%30.12 "HgN/A
4:20 PM50 °FPartly sunny.17 mph76%30.12 "HgN/A
3:50 PM52 °FPartly sunny.14 mph72%30.12 "HgN/A
3:20 PM52 °FPartly sunny.13 mph67%30.09 "HgN/A
2:50 PM54 °FPartly sunny.12 mph67%30.09 "HgN/A
2:20 PM52 °FPartly sunny.12 mph72%30.09 "HgN/A
1:50 PM48 °FPartly sunny.12 mph76%30.07 "HgN/A
1:20 PM52 °FOvercast.13 mph67%30.07 "HgN/A
12:50 PM52 °FPartly sunny.12 mph67%30.07 "HgN/A
12:20 PM50 °FOvercast.12 mph71%30.07 "HgN/A
Weather by CustomWeather, © 2016

See weather overviewHow to use our weather pages